Location: Csohesd
(46.2500°N, 22.6167°E)
Time: 04:36:19
(UTC+00:00)

SME Rocket - Pass Details

Date: 21 October 2021
Orbit: 550 x 2651 km, 99.9° (Epoch: 30 November)

Event Time Altitude Azimuth Distance (km) Brightness Sun altitude
Rises 15:52:12 0° 14° (NNE) 2,811 6.2 -4.1°
Reaches altitude 10° 15:54:05 10° 13° (NNE) 1,988 5.4 -4.5°
Maximum altitude 15:58:13 77° 288° (WNW) 761 3.7 -5.2°
Drops below altitude 10° 16:03:56 10° 203° (SSW) 2,724 6.8 -6.1°
Sets 16:06:54 0° 202° (SSW) 3,962 7.6 -6.6°
